Weather History for Veracruz Airport, Mexico

Change the Weather History Date:

Sunday, May 12, 2013

  Actual Average Record
Temperature  
Mean Temperature 82 °F -  
Max Temperature 86 °F 89 °F 96 °F (2000)
Min Temperature 77 °F 73 °F 71 °F (2001)
Cooling Degree Days 16    
Growing Degree Days 32 (Base 50)    
Moisture  
Dew Point 71 °F    
Average Humidity 71    
Maximum Humidity 83    
Minimum Humidity 58    
Precipitation  
Precipitation 0.00 in - - ()
Sea Level Pressure  
Sea Level Pressure 29.93 in    
Wind  
Wind Speed 11 mph ()    
Max Wind Speed 28 mph    
Max Gust Speed 29 mph    
Visibility 5.6 miles    
Events      
Averages and records for this station are not official NWS values.
T = Trace of Precipitation, MM = Missing Value Source: Averaged Metar Reports

Daily Weather History Graph

Daily Weather History Graph

Search for Another Location

Airport:

Trip Planner

Search our weather history database for the weather conditions in past years. The results will help you decide how hot, cold, wet, or windy it might be!

Date:

Astronomy

May. 12, 2013 Rise Set
Actual Time 6:51 AM CDT 7:51 PM CDT
Civil Twilight 6:27 AM CDT 8:14 PM CDT
Nautical Twilight 6:00 AM CDT 8:42 PM CDT
Astronomical Twilight 5:31 AM CDT 9:10 PM CDT
Moon 8:51 AM CDT (5/12) 10:15 PM CDT (5/12)
Length of Visible Light 13h 47m
Length of Day
13h 00m
Waxing Crescent, 7% of the Moon is Illuminated
May 12
Waxing Crescent
May 17
First Quarter
May 24
Full
May 31
Last Quarter
Jun 8
New

Hourly Weather History & Observations

Time (CDT) Temp. Heat Index Dew Point Humidity Pressure Visibility Wind Dir Wind Speed Gust Speed Precip Events Conditions
5:16 AM 78.8 °F - 69.8 °F 74% 29.93 in 5.0 mi North 4.6 mph - N/A   Mostly Cloudy
5:45 AM 78.8 °F - 71.6 °F 78% 29.93 in 6.0 mi NNE 5.8 mph - N/A   Scattered Clouds
6:54 AM 78.8 °F - 71.6 °F 78% 29.92 in 6.0 mi North 9.2 mph - N/A   Overcast
7:56 AM 78.8 °F - 71.6 °F 78% 29.96 in 6.0 mi NNE 8.1 mph - N/A   Overcast
8:54 AM 80.6 °F 84.6 °F 71.6 °F 74% 29.95 in 6.0 mi North 9.2 mph - N/A   Scattered Clouds
9:45 AM 82.4 °F 86.3 °F 69.8 °F 66% 29.95 in 5.0 mi North 11.5 mph - N/A   Overcast
10:46 AM 84.2 °F 88.4 °F 69.8 °F 62% 29.95 in 6.0 mi NE 11.5 mph - N/A   Mostly Cloudy
11:41 AM 86.0 °F 91.8 °F 71.6 °F 62% 29.94 in 6.0 mi NE 11.5 mph - N/A   Mostly Cloudy
12:44 PM 86.0 °F 90.4 °F 69.8 °F 58% 29.94 in 5.0 mi NE 16.1 mph - N/A   Scattered Clouds
1:44 PM 86.0 °F 91.8 °F 71.6 °F 62% 29.92 in 5.0 mi NE 20.7 mph - N/A   Scattered Clouds
2:43 PM 86.0 °F 91.8 °F 71.6 °F 62% 29.91 in 5.0 mi North 23.0 mph - N/A   Scattered Clouds
3:44 PM 84.2 °F 89.6 °F 71.6 °F 66% 29.92 in 5.0 mi NNE 27.6 mph - N/A   Scattered Clouds
4:40 PM 82.4 °F 87.2 °F 71.6 °F 70% 29.87 in 5.0 mi North 17.3 mph 28.8 mph N/A   Partly Cloudy
5:43 PM 80.6 °F 84.6 °F 71.6 °F 74% 29.87 in 5.0 mi North 17.3 mph 28.8 mph N/A   Scattered Clouds
6:49 PM 78.8 °F - 71.6 °F 78% 29.88 in 5.0 mi NNE 23.0 mph - N/A   Mostly Cloudy
7:42 PM 78.8 °F - 69.8 °F 74% 29.90 in 5.0 mi North 20.7 mph - N/A   Mostly Cloudy
8:46 PM 77.0 °F - 71.6 °F 83% 29.94 in 6.0 mi North 20.7 mph - N/A   Mostly Cloudy
9:46 PM 77.0 °F - 69.8 °F 78% 29.96 in 7.0 mi North 17.3 mph - N/A   Mostly Cloudy
10:53 PM 78.8 °F - 69.8 °F 74% 30.00 in 7.0 mi North 17.3 mph - N/A   Mostly Cloudy